Location: Fort Collins
(40.5850°N, 105.0840°W)
Time: 10:07:05
(UTC-06:00)

Cosmos 2297 Rocket - Visible Passes

Search period start: 29 March 2015 00:00
Search period end: 08 April 2015 00:00
Orbit: 841 x 842 km, 71.0° (Epoch: 27 March)

Date Brightness Start Highest point End Pass type
(mag) Time Alt. Az. Time Alt. Az. Time Alt. Az.
29 Mar 5.0 05:44:05 10° N 05:47:38 17° NE 05:51:21 10° E visible
29 Mar 2.8 20:34:24 10° SSE 20:39:15 31° ESE 20:44:12 10° NE visible
29 Mar 3.5 22:18:02 10° SW 22:23:14 37° WNW 22:28:25 10° N visible
30 Mar 5.0 05:29:08 10° N 05:32:31 16° NE 05:36:05 10° E visible
30 Mar 2.9 20:19:27 10° SSE 20:24:13 30° ESE 20:29:05 10° NE visible
30 Mar 3.5 22:02:53 10° SW 22:08:09 38° WNW 22:13:24 10° N visible
31 Mar 5.1 05:14:12 10° NNE 05:17:24 16° NE 05:20:50 10° E visible
31 Mar 3.0 20:04:31 10° SSE 20:09:11 28° ESE 20:13:58 10° NE visible
31 Mar 3.4 21:47:46 10° SW 21:53:05 40° WNW 21:58:23 10° N visible
01 Apr 5.1 04:59:16 10° NNE 05:02:18 15° NE 05:05:33 10° E visible
01 Apr 3.1 19:49:36 10° SSE 19:54:09 27° ESE 19:58:50 10° NE visible
01 Apr 3.4 21:32:39 10° SW 21:38:01 42° WNW 21:43:22 10° N visible
02 Apr 5.2 04:44:21 10° NNE 04:47:11 14° NE 04:50:16 10° E visible
02 Apr 3.3 21:17:32 10° SW 21:22:56 45° WNW 21:28:20 10° NNE visible
03 Apr 5.2 04:29:26 10° NNE 04:32:05 14° NE 04:34:58 10° ENE visible
03 Apr 2.4 06:11:30 10° NNW 06:17:10 81° ENE 06:22:49 10° SSE visible
03 Apr 3.2 21:02:26 10° SW 21:07:52 47° WNW 21:13:18 10° NNE visible
04 Apr 5.3 04:14:33 10° NNE 04:16:58 13° NE 04:19:38 10° ENE visible
04 Apr 2.4 05:56:27 10° NNW 06:02:07 77° ENE 06:07:45 10° SSE visible
04 Apr 3.2 20:47:19 10° SW 20:52:47 49° WNW 20:58:16 10° NNE visible
05 Apr 5.3 03:59:41 10° NNE 04:01:51 12° NE 04:04:16 10° ENE visible
05 Apr 2.5 05:41:24 10° NNW 05:47:03 73° ENE 05:52:41 10° SSE visible
05 Apr 3.1 20:32:13 10° SW 20:37:43 52° WNW 20:43:14 10° NNE visible
06 Apr 5.4 03:44:52 10° NNE 03:46:44 12° NE 03:48:52 10° ENE visible
06 Apr 2.6 05:26:21 10° NNW 05:32:00 70° ENE 05:37:37 10° SSE visible
06 Apr 3.0 20:17:07 10° SW 20:22:39 55° WNW 20:28:12 10° NNE visible
07 Apr 5.4 03:30:05 10° NNE 03:31:37 11° NE 03:33:26 10° ENE visible
07 Apr 2.6 05:11:18 10° NNW 05:16:56 66° ENE 05:22:32 10° SSE visible
07 Apr 3.0 20:02:02 10° SW 20:07:35 58° WNW 20:13:10 10° NNE visible
